星链-5553 (STARLINK-5553 )

导读

STARLINK-5553是美国太空探索技术公司(SpaceX)于2023年4月27日发射的星链(Starlink)卫星,属于星链星座组网的一部分,运行在近地轨道,依托星链星座的技术体系,配备相控阵天线与氪离子推进系统,可配合星座实现全球范围高速低延迟卫星互联网接入,能为偏远地区、移动场景提供宽带服务,也支持应急通信等应用,服役后将逐步扩充星链网络的覆盖容量与服务能力。

Basic Information
目录编号:
56333
目录名称:
STARLINK-5553
国际标识:
2023-058S
轨道中心:
EARTH
卫星名称:
星链-5553
卫星全名:
星链-5553 (STARLINK-5553 )
卫星状态:
在轨 (已飞行1226 天)
发射日期:
2023-04-27 UTC
国别 :
美国 (US)
星等 :
--
Orbit Information
数据来源 国际轨道数据 AOE轨道数据
星历时间 2026-09-03T18:43:03+0800
1天前
查看轨道信息
2026-08-31T12:00:00+0800
4天前
查看轨道信息
半长轴 6843.704km 6843.713km
偏心率 0.0001735 0.0001329
轨道倾角 97.285° 97.286°
近地点辐角 91.375° 47.907°
升交点赤经 243.472° 240.243°
平近点角 268.769° 217.777°
近地点 464.379km 464.666km
远地点 466.755km 466.486km
周期 93.907分钟 93.907分钟
每日圈数 15.33437 15.334343
Detailed Information
固有亮度:
5
最大亮度:
2.5
卫星平台:
Starlink v1.5
覆盖范围:
全球
运营商:
太空探索技术公司
运营商所在国:
美国
制造商(研发单位):
太空探索技术公司
制造商所在国:
美国
使用方式:
暂无
Satellite Introduction
星链(Starlink)计划是由太空探索技术公司(SpaceX)提出的一个巨型低轨卫星互联网星座项目,计划在2019年至2024年间在太空搭建由约1.2万颗卫星组成的“星链”网络,其中1584颗将部署在地球上空550千米处的近地轨道,并从2020年开始工作。该卫星仍在工作。
2D Orbit Map
3D Orbit Map
Orbit Altitude Analysis Chart
Orbit Inclination Analysis Chart
Orbit Comprehensive Analysis Chart
View Comprehensive Chart
Conjunction Data List
Event ID Objects TCA Miss Dist (km) Collision Risk Probability Collision Risk Index (CRI) Action
CDM_260904-104705-633306-961621
2026-09-04T
10:47:08+0000
0.269 km
中距离
5.674535E-4 高风险 0.9
CDM_260903-103604-810605-633322
2026-09-03T
10:36:09+0000
2.758 km
极远距离
1.48489E-6 低风险 0.38
CDM_260829-201904-859505-633322
2026-08-29T
20:19:58+0000
2.907 km
极远距离
1.389739E-6 低风险 0.38
CDM_260902-235904-942405-633322
2026-09-02T
23:59:17+0000
2.959 km
极远距离
1.199112E-6 低风险 0.37